Hourly Weather Celmes

Today, 25 June, Friday

Time Temperature Precipitation Wind Pressure Humidity
00:00 +21°C° 0 mm 1 mps 660 mmHg 57%
01:00 +20°C° 0 mm 1 mps 660 mmHg 56%
02:00 +19°C° 0 mm 2 mps 660 mmHg 54%
03:00 +19°C° 0 mm 2 mps 660 mmHg 52%
04:00 +20°C° 0 mm 2 mps 660 mmHg 52%
05:00 +21°C° 0 mm 2 mps 660 mmHg 52%
06:00 +21°C° 0 mm 2 mps 660 mmHg 51%
07:00 +25°C° 0 mm 1 mps 660 mmHg 44%
08:00 +27°C° 0 mm 1 mps 660 mmHg 37%
09:00 +27°C° 0 mm 0 mps 660 mmHg 31%
10:00 +30°C° 0 mm 1 mps 660 mmHg 31%
11:00 +31°C° 0 mm 1 mps 660 mmHg 32%
12:00 +32°C° 0 mm 2 mps 661 mmHg 32%
13:00 +32°C° 0 mm 2 mps 660 mmHg 34%
14:00 +32°C° 0 mm 2 mps 660 mmHg 35%
15:00 +32°C° 0 mm 2 mps 660 mmHg 37%
16:00 +31°C° 0 mm 2 mps 660 mmHg 43%
17:00 +30°C° 0 mm 2 mps 660 mmHg 50%
18:00 +29°C° 0 mm 2 mps 660 mmHg 57%
19:00 +27°C° 0 mm 1 mps 659 mmHg 59%
20:00 +25°C° 0 mm 1 mps 659 mmHg 61%
21:00 +23°C° 0 mm 1 mps 659 mmHg 63%
22:00 +22°C° 0 mm 1 mps 659 mmHg 61%
23:00 +21°C° 0 mm 2 mps 659 mmHg 58%

Tomorrow, 26 June, Saturday

Time Temperature Precipitation Wind Pressure Humidity
00:00 +20°C° 0 mm 2 mps 659 mmHg 56%
01:00 +20°C° 0 mm 2 mps 659 mmHg 54%
02:00 +21°C° 0 mm 1 mps 658 mmHg 53%
03:00 +21°C° 0 mm 1 mps 658 mmHg 51%
04:00 +22°C° 0 mm 1 mps 658 mmHg 51%
05:00 +21°C° 0 mm 2 mps 658 mmHg 51%
06:00 +23°C° 0 mm 2 mps 658 mmHg 51%
07:00 +25°C° 0 mm 1 mps 659 mmHg 44%
08:00 +27°C° 0 mm 1 mps 659 mmHg 37%
09:00 +29°C° 0 mm 1 mps 659 mmHg 30%
10:00 +30°C° 0 mm 1 mps 659 mmHg 31%
11:00 +31°C° 0 mm 2 mps 659 mmHg 31%
12:00 +32°C° 0 mm 2 mps 659 mmHg 31%
13:00 +32°C° 0 mm 2 mps 659 mmHg 34%
14:00 +32°C° 0 mm 2 mps 659 mmHg 36%
15:00 +32°C° 0 mm 2 mps 659 mmHg 38%
16:00 +31°C° 0.1 mm 2 mps 658 mmHg 45%
17:00 +30°C° 0.1 mm 1 mps 658 mmHg 51%
18:00 +29°C° 0.1 mm 1 mps 658 mmHg 57%
19:00 +27°C° 0 mm 1 mps 658 mmHg 60%
20:00 +25°C° 0 mm 1 mps 658 mmHg 63%
21:00 +23°C° 0 mm 1 mps 658 mmHg 66%
22:00 +23°C° 0 mm 1 mps 658 mmHg 64%
23:00 +22°C° 0 mm 1 mps 658 mmHg 63%

Day after tomorrow, 27 June, Sunday

Time Temperature Precipitation Wind Pressure Humidity
00:00 +21°C° 0 mm 2 mps 658 mmHg 61%
01:00 +21°C° 0 mm 2 mps 658 mmHg 58%
02:00 +20°C° 0 mm 2 mps 658 mmHg 55%
03:00 +20°C° 0 mm 2 mps 658 mmHg 52%
04:00 +21°C° 0 mm 2 mps 658 mmHg 51%
05:00 +23°C° 0 mm 1 mps 658 mmHg 50%
06:00 +23°C° 0 mm 1 mps 658 mmHg 50%
07:00 +25°C° 0 mm 1 mps 659 mmHg 45%
08:00 +26°C° 0 mm 1 mps 659 mmHg 40%
09:00 +28°C° 0 mm 1 mps 659 mmHg 35%
10:00 +29°C° 0 mm 1 mps 660 mmHg 34%
11:00 +29°C° 0 mm 1 mps 660 mmHg 34%
12:00 +30°C° 0 mm 2 mps 660 mmHg 33%
13:00 +30°C° 0.1 mm 2 mps 660 mmHg 36%
14:00 +30°C° 0.1 mm 2 mps 660 mmHg 39%
15:00 +29°C° 0.1 mm 2 mps 660 mmHg 43%
16:00 +28°C° 0.1 mm 2 mps 660 mmHg 48%
17:00 +27°C° 0.1 mm 1 mps 660 mmHg 53%
18:00 +27°C° 0.1 mm 1 mps 660 mmHg 58%
19:00 +25°C° 0 mm 1 mps 660 mmHg 61%
20:00 +23°C° 0 mm 1 mps 660 mmHg 64%
21:00 +22°C° 0 mm 1 mps 660 mmHg 67%
22:00 +21°C° 0 mm 1 mps 659 mmHg 64%
23:00 +21°C° 0 mm 1 mps 659 mmHg 60%

28 June, Monday

Time Temperature Precipitation Wind Pressure Humidity
00:00 +21°C° 0 mm 1 mps 659 mmHg 57%
01:00 +21°C° 0 mm 1 mps 659 mmHg 56%
02:00 +21°C° 0 mm 1 mps 659 mmHg 55%
03:00 +21°C° 0 mm 1 mps 659 mmHg 54%
04:00 +21°C° 0 mm 1 mps 659 mmHg 55%
05:00 +22°C° 0 mm 1 mps 659 mmHg 55%
06:00 +21°C° 0 mm 0 mps 660 mmHg 56%
07:00 +24°C° 0 mm 1 mps 660 mmHg 52%
08:00 +26°C° 0 mm 1 mps 660 mmHg 49%
09:00 +27°C° 0 mm 1 mps 660 mmHg 45%
10:00 +28°C° 0 mm 2 mps 661 mmHg 45%
11:00 +29°C° 0 mm 2 mps 661 mmHg 44%
12:00 +30°C° 0 mm 2 mps 661 mmHg 44%
13:00 +30°C° 0.4 mm 3 mps 661 mmHg 47%
14:00 +29°C° 0.4 mm 3 mps 661 mmHg 50%
15:00 +29°C° 0.4 mm 3 mps 661 mmHg 53%
16:00 +26°C° 3 mm 3 mps 660 mmHg 64%
17:00 +24°C° 3 mm 2 mps 660 mmHg 75%
18:00 +21°C° 3 mm 1 mps 660 mmHg 86%
19:00 +21°C° 0.6 mm 1 mps 660 mmHg 85%
20:00 +20°C° 0.6 mm 1 mps 660 mmHg 84%
21:00 +20°C° 0.6 mm 1 mps 660 mmHg 83%
22:00 +20°C° 0 mm 1 mps 660 mmHg 81%
23:00 +20°C° 0 mm 1 mps 660 mmHg 79%

29 June, Tuesday

Time Temperature Precipitation Wind Pressure Humidity
00:00 +20°C° 0 mm 1 mps 660 mmHg 77%
01:00 +19°C° 0 mm 1 mps 659 mmHg 75%
02:00 +18°C° 0 mm 2 mps 659 mmHg 73%
03:00 +18°C° 0 mm 2 mps 659 mmHg 71%
04:00 +20°C° 0 mm 1 mps 659 mmHg 68%
05:00 +21°C° 0 mm 1 mps 659 mmHg 66%
06:00 +22°C° 0 mm 1 mps 660 mmHg 63%
07:00 +23°C° 0 mm 1 mps 660 mmHg 60%
08:00 +25°C° 0 mm 1 mps 660 mmHg 57%
09:00 +26°C° 0 mm 2 mps 661 mmHg 54%
10:00 +27°C° 0 mm 2 mps 661 mmHg 53%
11:00 +27°C° 0 mm 2 mps 661 mmHg 53%
12:00 +28°C° 0 mm 2 mps 661 mmHg 53%
13:00 +28°C° 0.8 mm 2 mps 660 mmHg 56%
14:00 +27°C° 0.8 mm 3 mps 660 mmHg 60%
15:00 +27°C° 0.8 mm 3 mps 660 mmHg 63%
16:00 +26°C° 1.4 mm 2 mps 660 mmHg 68%
17:00 +24°C° 1.4 mm 2 mps 660 mmHg 74%
18:00 +23°C° 1.4 mm 2 mps 660 mmHg 79%
19:00 +22°C° 0.3 mm 1 mps 660 mmHg 80%
20:00 +21°C° 0.3 mm 1 mps 659 mmHg 81%
21:00 +20°C° 0.3 mm 1 mps 659 mmHg 82%
22:00 +20°C° 0.1 mm 1 mps 659 mmHg 82%
23:00 +20°C° 0.1 mm 1 mps 659 mmHg 82%

30 June, Wednesday

Time Temperature Precipitation Wind Pressure Humidity
00:00 +20°C° 0.1 mm 1 mps 660 mmHg 81%
01:00 +20°C° 0 mm 1 mps 659 mmHg 81%
02:00 +20°C° 0 mm 1 mps 659 mmHg 80%
03:00 +19°C° 0 mm 1 mps 659 mmHg 80%
04:00 +20°C° 0 mm 1 mps 659 mmHg 78%
05:00 +20°C° 0 mm 1 mps 659 mmHg 76%
06:00 +21°C° 0 mm 1 mps 660 mmHg 75%
07:00 +23°C° 0 mm 1 mps 660 mmHg 69%
08:00 +24°C° 0 mm 1 mps 660 mmHg 63%
09:00 +26°C° 0 mm 1 mps 660 mmHg 57%
10:00 +26°C° 0.1 mm 2 mps 660 mmHg 57%
11:00 +27°C° 0.1 mm 2 mps 660 mmHg 57%
12:00 +28°C° 0.1 mm 3 mps 660 mmHg 57%
13:00 +27°C° 0.8 mm 3 mps 660 mmHg 60%
14:00 +27°C° 0.8 mm 3 mps 660 mmHg 64%
15:00 +26°C° 0.8 mm 3 mps 660 mmHg 68%
16:00 +26°C° 0.6 mm 3 mps 660 mmHg 71%
17:00 +25°C° 0.6 mm 2 mps 660 mmHg 74%
18:00 +24°C° 0.6 mm 2 mps 660 mmHg 78%
19:00 +23°C° 0.9 mm 2 mps 660 mmHg 82%
20:00 +21°C° 0.9 mm 2 mps 660 mmHg 87%
21:00 +20°C° 0.9 mm 1 mps 660 mmHg 91%
22:00 +19°C° 2.3 mm 2 mps 660 mmHg 91%
23:00 +18°C° 2.3 mm 2 mps 661 mmHg 90%
Show more

We Need Your Consent

Meteoprog and our Service Providers may store and access personal data such as cookies, device identifiers or other similar technologies on your device and process such data to personalise content and ads, as well as provide social media features and to analyse the traffic.

  • Store and/or access information on your device

    Cookies, device identifiers or other information can be stored or accessed on your device for the purposes indicated above.

  • Personalised ads and content, ad and content measurement, audience insights, and products development

    Ads and content can be personalised based on a profile. More data can be added to better personalise ads and content. Ad and content performance can be measured. Insights about the audience who saw the ads and content can be derived. Such data can be used to develop or improve user’s experience, systems and software.

By clicking ‘I Agree’ you will allow the use of indicated cookies, device identifiers, web beacons or other similar technologies. Your settings can be changed in the browser on your device.

For certain purposes, legitimate interests may be relied on, rather than consent. You can read more about this in our Privacy and Cookie Policy.